Regional Weather Roundup
Issued by NWS

Home | Current Version | Previous Version | Graphics & Text | Print | Product List | Glossary On
Versions: 1 2 3 4 5 6 7 8 9 10 11 12 13 14 15 16 17 18 19 20 21 22 23 24 25 26 27 28 29 30 31 32 33 34 35 36 37 38 39 40 41 42 43 44 45 46 47 48 49 50
000
ASUS43 KTOP 070859
RWRKS

WEATHER ROUNDUP FOR KANSAS
NATIONAL WEATHER SERVICE GOODLAND KS
300 AM CST WED DEC 07 2016

NOTE:  "FAIR" INDICATES FEW OR NO CLOUDS BELOW 12,000 FEET WITH NO
SIGNIFICANT WEATHER AND/OR OBSTRUCTIONS TO VISIBILITY.

KSZ001>006-013>018-027>032-041>047-071000-
NORTHWEST KANSAS

CITY           SKY/WX    TMP DP  RH WIND       PRES   REMARKS
GOODLAND       CLOUDY    23   5  46 E9        29.99R
HAYS           CLOUDY    27  19  72 NE12      30.09S WCI  17
HILL CITY      CLOUDY    23  11  60 E8        30.11R
RUSSELL        CLOUDY    26  16  65 NE7       30.10S
$$

KSZ061>065-074>080-084>089-071000-
SOUTHWEST KANSAS

CITY           SKY/WX    TMP DP  RH WIND       PRES   REMARKS
DODGE CITY     CLOUDY    25  17  72 E6        30.04R
ELKHART          N/A     13   1  59 SE12        N/A  WCI  -1
GARDEN CITY    CLOUDY    24  11  57 SE14      29.99R WCI  12
GREAT BEND     CLOUDY    30  21  69 E6        30.09F
LIBERAL        CLEAR     23  10  58 E9        29.99S
$$

KSZ066>073-081>083-090>101-071000-
SOUTHEAST KANSAS

CITY           SKY/WX    TMP DP  RH WIND       PRES   REMARKS
CHANUTE        CLOUDY    32  22  66 N5        30.16F
COFFEYVILLE    CLOUDY    32  23  69 NE8       30.15F
HUTCHINSON     CLOUDY    31  19  61 NE5       30.12F
MEDICINE LODGE   N/A     32  18  56 E7        30.09S
NEWTON         CLOUDY    30  21  69 NE6       30.13F
PARSONS        CLOUDY    34  20  56 VRB5      30.16F
WICHITA INTL   CLOUDY    35  17  47 NE9       30.12S
WICHITA JABRA  CLOUDY    31  22  69 NE5       30.12S
WINFIELD       CLOUDY    34  16  47 E8        30.12F
$$

KSZ007>012-019>026-033>040-048>060-102>105-071000-
NORTHEAST KANSAS

CITY           SKY/WX    TMP DP  RH WIND       PRES   REMARKS
CONCORDIA      CLOUDY    25  12  58 E3        30.16S
EMPORIA        CLOUDY    30  19  63 E7        30.15S
LAWRENCE       CLOUDY    32  12  43 VRB3      30.22R
MANHATTAN      CLOUDY    30  14  51 NE8       30.18S
OLATHE IND     CLOUDY    31  15  52 N12       30.21R WCI  22
OLATHE EXE     CLOUDY    32  10  40 N10       30.20R WCI  24
SALINA         MOCLDY    31  16  54 NE9       30.16R
TOPEKA BILLARD CLOUDY    31  13  47 NE6       30.21R
TOPEKA FORBES  CLOUDY    32  11  41 N7        30.19S
$$




USA.gov is the U.S. government's official web portal to all federal, state and local government web resources and services.